Location: Ferrier
(52.3667°N, 115.0667°W)
Time: 10:06:43
(UTC+00:00)

Envisat - Visible Passes

Search period start: 02 December 2021 00:00
Search period end: 12 December 2021 00:00
Orbit: 764 x 766 km, 98.2° (Epoch: 01 December)

Date Brightness Start Highest point End Pass type
(mag) Time Alt. Az. Time Alt. Az. Time Alt. Az.
02 Dec 6.1 01:27:38 10° WSW 01:29:55 13° W 01:32:11 10° WNW visible
02 Dec 5.1 11:48:18 10° NE 11:52:30 25° E 11:56:40 10° SSE visible
02 Dec 3.0 13:26:53 10° N 13:31:52 57° WNW 13:36:50 10° SW visible
03 Dec 5.4 00:48:23 10° SSW 00:52:33 25° W 00:56:44 10° NW visible
03 Dec 5.9 11:12:50 10° ENE 11:15:08 13° E 11:17:26 10° ESE visible
03 Dec 3.1 12:49:56 10° NNE 12:55:03 77° ESE 13:00:08 10° S visible
03 Dec 4.1 14:29:47 10° N 14:33:33 21° NW 14:37:19 10° WSW visible
04 Dec 4.2 00:10:30 10° S 00:15:24 48° W 00:20:20 10° NNW visible
04 Dec 4.3 12:13:15 10° NNE 12:18:02 39° E 12:22:47 10° SSE visible
04 Dec 3.5 13:52:23 10° N 13:57:03 37° WNW 14:01:41 10° SW visible
05 Dec 5.9 01:15:07 10° WSW 01:18:11 16° W 01:21:16 10° NW visible
05 Dec 5.4 11:37:00 10° NE 11:40:49 21° E 11:44:36 10° SE visible
05 Dec 2.9 13:15:16 10° N 13:20:21 69° WNW 13:25:24 10° SSW visible
06 Dec 5.1 00:36:26 10° SSW 00:40:53 30° W 00:45:22 10° NNW visible
06 Dec 6.1 11:02:42 10° ENE 11:03:23 10° E 11:04:05 10° E visible
06 Dec 3.4 12:38:24 10° NNE 12:43:27 63° E 12:48:29 10° S visible
06 Dec 3.9 14:18:02 10° N 14:22:07 25° WNW 14:26:13 10° WSW visible
06 Dec 3.8 23:58:47 10° S 00:03:47 59° W 00:08:50 10° NNW visible
07 Dec 4.6 12:01:49 10° NNE 12:06:23 32° E 12:10:55 10° SSE visible
07 Dec 3.2 13:40:44 10° N 13:45:33 44° WNW 13:50:22 10° SW visible
08 Dec 5.8 01:02:51 10° SW 01:06:28 19° W 01:10:08 10° NW visible
08 Dec 5.6 11:25:49 10° NE 11:29:06 17° E 11:32:23 10° SE visible
08 Dec 2.9 13:03:41 10° NNE 13:08:48 84° WNW 13:13:53 10° SSW visible
08 Dec 4.4 14:43:52 10° NNW 14:47:07 17° NW 14:50:22 10° W visible
09 Dec 4.7 00:24:33 10° SSW 00:29:14 37° W 00:33:57 10° NNW visible
09 Dec 3.8 12:26:53 10° NNE 12:31:52 51° E 12:36:48 10° S visible
09 Dec 3.7 14:06:18 10° N 14:10:40 30° WNW 14:15:02 10° WSW visible
10 Dec 6.1 01:30:13 10° WSW 01:32:10 12° W 01:34:07 10° WNW visible
10 Dec 5.0 11:50:26 10° NE 11:54:43 27° E 11:59:00 10° SSE visible
10 Dec 3.0 13:29:05 10° N 13:34:03 54° WNW 13:38:59 10° SW visible
11 Dec 5.5 00:50:44 10° SW 00:54:47 24° W 00:58:51 10° NW visible
11 Dec 5.8 11:14:48 10° NE 11:17:23 14° E 11:19:57 10° ESE visible
11 Dec 3.0 12:52:07 10° NNE 12:57:14 81° ESE 13:02:20 10° SSW visible
11 Dec 4.2 14:32:03 10° N 14:35:42 20° NW 14:39:22 10° WSW visible
